Location: Newark
(45.2500°N, 7.5833°E)
Time: 22:22:56
(UTC+00:00)

A-11 Canister half - Pass Details

Date: 29 January 2020
Orbit: 1524 x 1684 km, 47.3° (Epoch: 19 February)

Event Time Altitude Azimuth Distance (km) Brightness Sun altitude
Rises 23:05:50 0° 293° (WNW) 4,761 11.8 -61.6°
Enters shadow 23:07:39 - 288° (WNW) 4,248 11.5 -61.7°
Reaches altitude 10° 23:09:19 10° 283° (WNW) 3,797 - -61.7°
Maximum altitude 23:17:22 31° 227° (SW) 2,555 - -62.1°
Drops below altitude 10° 23:25:37 10° 170° (S) 3,888 - -62.4°
Sets 23:29:15 0° 160° (SSE) 4,891 - -62.5°
